2024-125E

Last updated on Sun Aug 04 2024 00:02:04 GMT+0000 (Coordinated Universal Time)

1 60207U 24125E 24216.56196793 .00011753 00000+0 53804-3 0 9999 2 60207 97.3193 68.5599 0028022 147.9677 212.3269 15.20295891 4614

Satellite not in orbit

2024-125E